Location: Shenandoah County Park
(38.9356°N, 78.4524°W)
Time: 23:32:17
(UTC-04:00)

Transit 4A - Pass Details

Date: 11 June 2023
Orbit: 862 x 981 km, 66.8° (Epoch: 02 October)

Event Time Altitude Azimuth Distance (km) Brightness Sun altitude
Rises 22:00:22 0° 336° (NNW) 3,657 12.4 -13.2°
Reaches altitude 10° 22:03:02 10° 342° (NNW) 2,719 11.4 -13.6°
Maximum altitude 22:09:11 48° 56° (NE) 1,256 8.5 -14.4°
Enters shadow 22:13:25 20° 122° (ESE) 2,084 9.1 -15.0°
